Wind_Speed
61 59 55 52 52 53 53 51 50 50 47 45 45 45 44 42 41 39 37 37 36 35 35 36 35 33 31 31 33 32 29 29 29 21 19 23 21 16 18 19 17 14 11 8 6 5 6 9 11 12 15 16 16 17 20 20 18 19 22 25 26 27 26 25 23 21 19 18 15 13 11 10 11 12 14 15 16 17 18 18 18 19 19 19 19 19
63 60 57 56 58 58 57 54 53 51 47 44 45 45 43 40 38 36 35 35 34 33 34 34 32 30 29 30 32 32 31 31 28 23 21 25 22 19 21 20 17 15 12 10 8 8 6 8 10 11 13 17 17 16 19 21 20 19 21 23 25 26 26 25 23 21 18 16 14 11 8 7 8 10 12 14 15 16 17 17 17 17 17 17 17 18
64 60 60 62 63 62 60 57 56 53 49 47 47 46 43 38 36 34 33 32 32 32 32 31 30 30 30 30 31 33 34 32 28 25 25 26 25 22 22 21 18 16 14 12 10 10 9 10 11 13 14 16 18 18 19 21 22 21 20 21 23 25 25 24 22 20 17 15 12 9 7 6 6 7 10 12 14 15 16 16 16 16 15 15 16 17
65 63 64 68 68 65 62 60 58 55 52 50 49 47 44 40 36 34 33 33 33 32 31 29 29 29 29 29 31 34 36 34 29 27 30 32 30 26 24 22 19 18 17 14 11 11 11 11 12 14 15 17 19 20 20 21 22 22 21 20 20 21 21 21 20 18 16 14 11 9 7 6 5 6 8 10 12 13 14 14 14 14 14 14 15 15
69 67 69 72 71 68 65 63 61 58 55 54 52 50 47 42 37 35 36 35 33 30 29 28 28 28 28 30 34 37 36 35 31 29 33 34 31 28 26 23 20 19 17 14 12 11 11 12 14 15 17 17 18 19 20 21 21 21 22 21 19 19 18 18 17 16 15 13 11 10 8 7 6 6 7 9 10 11 12 12 12 12 12 13 13 13
72 71 72 73 72 69 67 66 64 61 59 58 55 52 50 45 40 39 38 36 33 31 30 30 28 28 29 31 37 39 37 35 31 31 35 34 30 29 27 22 19 18 16 13 13 11 11 11 13 16 18 18 18 18 19 20 20 21 21 21 20 19 18 17 16 15 14 13 12 11 10 9 8 7 7 7 8 9 10 10 10 10 10 11 11 11
73 74 74 73 73 71 70 69 67 65 62 60 57 55 52 48 44 43 40 38 36 34 33 31 29 29 29 31 37 41 40 38 33 34 39 39 36 33 27 22 20 19 17 14 13 12 12 12 12 14 17 19 19 19 20 20 21 21 20 20 20 20 18 18 17 16 15 14 13 13 12 10 8 7 7 6 6 7 7 7 8 8 8 9 9 10
75 76 76 75 75 73 72 70 70 69 65 62 61 59 55 50 47 44 42 40 39 37 34 31 29 27 26 28 34 39 42 42 40 39 40 39 38 34 28 25 24 22 19 16 15 14 14 15 14 15 17 19 21 21 21 21 21 22 20 19 19 20 19 18 18 17 16 15 15 14 12 9 6 6 5 5 4 4 4 5 5 5 6 7 7 8
78 79 78 76 76 75 73 73 73 72 68 66 65 62 58 54 49 47 44 42 42 39 34 31 29 26 25 26 30 36 41 44 44 41 38 37 37 34 31 28 26 24 20 17 16 16 14 15 15 16 17 19 21 22 23 22 21 21 20 19 20 19 20 19 19 18 18 17 16 14 11 8 6 6 5 4 3 2 2 2 3 3 4 5 5 5
80 81 80 78 78 77 76 77 77 74 70 70 69 64 61 58 54 51 47 45 44 39 33 31 30 28 27 25 28 35 41 44 45 42 39 39 37 34 33 30 27 25 21 18 17 18 16 14 15 16 16 18 20 22 23 23 22 21 21 21 21 20 20 20 20 19 19 18 16 13 11 8 7 7 6 4 3 2 2 1 1 1 2 3 3 3
83 83 82 79 80 80 80 81 80 75 74 74 71 67 64 62 59 54 49 47 44 38 35 34 32 31 29 25 27 36 43 46 47 44 42 40 36 33 33 31 29 26 23 21 20 20 18 14 15 16 15 16 18 22 24 24 23 22 21 21 22 21 21 20 20 20 19 17 15 13 11 10 10 9 7 6 5 4 4 2 1 1 1 1 1 1
87 85 83 80 81 83 83 82 80 76 76 76 73 70 68 67 62 56 52 48 43 39 38 38 35 33 30 26 28 38 44 46 46 45 43 41 38 36 34 32 30 26 24 23 22 21 18 15 15 16 16 15 16 18 21 22 23 22 22 21 22 23 23 21 20 19 18 16 15 14 12 12 12 11 9 8 7 6 5 3 3 3 2 2 2 1
92 89 86 83 82 84 84 83 81 77 77 77 75 72 71 70 65 58 54 48 43 41 41 41 39 35 32 31 32 39 44 46 47 46 44 42 40 36 33 33 31 28 27 25 24 23 19 16 15 16 17 17 16 16 17 18 20 21 22 21 21 22 22 21 20 19 17 15 15 14 13 13 13 12 11 10 9 8 6 5 4 4 4 4 4 3
96 93 90 87 85 86 87 85 82 79 78 78 78 75 74 74 68 61 56 50 47 46 46 45 42 37 37 37 36 41 45 46 48 48 45 43 40 36 34 34 33 31 31 29 26 24 21 18 17 16 16 17 17 17 17 18 19 20 21 21 21 21 21 21 21 20 18 16 15 15 14 15 14 13 13 12 11 9 8 8 7 6 5 5 5 5
98 96 95 91 87 86 88 87 84 82 81 81 81 79 77 77 72 66 61 56 53 53 51 49 45 41 41 41 40 43 47 47 49 49 45 42 40 39 38 37 34 32 31 29 27 26 23 21 19 17 16 17 18 18 18 18 19 20 21 22 22 22 22 22 21 20 19 17 17 16 16 16 15 15 14 14 12 11 10 10 9 8 8 7 7 7
100 100 99 97 92 90 91 90 88 87 85 84 85 82 80 79 76 71 67 62 60 58 56 52 48 45 47 46 43 44 46 48 49 49 46 44 43 41 40 37 35 34 33 32 31 29 27 24 22 20 18 17 17 17 17 17 18 19 20 21 22 23 23 22 21 20 19 18 19 18 18 18 17 17 16 15 14 13 12 12 11 10 10 9 8 9
102 102 103 102 98 95 94 93 91 90 88 87 87 84 80 80 80 76 71 67 64 61 58 56 52 51 52 50 46 45 46 48 49 49 48 47 46 44 41 38 37 36 36 35 35 32 28 26 24 22 20 19 18 17 17 17 17 17 18 19 21 22 23 23 22 21 20 20 20 20 20 20 19 19 18 17 16 15 15 15 14 13 12 11 11 11
103 104 105 103 100 97 95 95 93 91 89 89 89 86 82 83 84 79 75 72 67 63 60 58 56 55 54 52 49 47 48 50 51 51 50 49 48 46 44 41 38 37 37 37 35 31 28 27 26 24 23 21 19 18 17 17 17 18 18 19 20 22 22 22 22 21 21 21 21 21 21 21 21 21 20 19 18 18 18 18 17 16 14 14 14 13
103 105 105 103 101 100 98 97 95 92 91 92 92 89 86 87 87 82 77 74 70 66 64 62 61 59 57 55 53 51 52 54 54 52 51 50 49 48 47 45 41 39 38 37 33 30 29 29 28 26 23 21 20 19 18 17 17 17 18 19 20 20 20 20 20 22 22 22 22 21 21 22 22 22 21 21 21 21 21 20 19 18 17 17 16 15
104 107 106 104 103 103 103 103 100 95 93 94 94 92 89 88 88 84 79 77 74 72 69 66 65 63 60 59 58 56 56 57 56 54 52 51 50 49 49 47 46 44 42 37 34 32 32 33 30 27 24 22 21 19 18 18 17 17 17 18 19 19 19 20 20 21 23 24 25 24 23 23 23 23 23 23 23 23 22 22 21 20 19 19 19 17
107 109 106 104 104 106 107 107 104 99 96 96 95 92 89 88 88 86 82 80 79 76 72 69 67 65 64 63 63 61 60 59 57 56 54 52 51 50 48 48 47 46 43 40 38 37 37 36 31 27 25 23 22 21 21 20 19 18 17 17 17 18 19 20 20 20 22 23 24 25 25 25 24 24 24 24 24 24 23 23 23 22 21 21 20 19
111 110 107 106 107 109 110 110 107 104 100 99 97 94 91 89 89 88 84 81 81 79 76 73 70 69 69 67 66 65 65 62 60 58 56 55 53 51 49 48 47 45 43 42 40 39 39 37 33 29 26 25 24 24 23 21 20 19 18 17 17 18 19 20 20 20 20 20 21 23 24 24 25 25 25 25 25 25 25 25 24 23 23 23 22 21
111 110 108 107 109 110 111 111 110 108 106 103 103 100 96 94 93 91 87 84 83 82 79 77 75 74 72 68 67 68 68 65 63 61 59 58 56 54 51 50 48 47 45 44 42 39 37 36 35 31 28 27 26 25 24 23 22 21 19 18 18 18 19 19 19 19 19 19 20 20 21 23 24 25 26 27 26 26 26 26 25 25 24 24 23 23
111 111 110 109 110 110 111 111 109 109 109 108 107 104 99 96 94 93 90 89 88 85 83 81 79 76 73 70 69 70 70 68 66 65 62 60 58 55 53 52 52 50 48 46 45 42 39 36 35 33 31 30 28 27 26 25 24 23 22 21 20 19 19 19 19 19 19 20 19 19 20 22 24 25 26 27 27 27 27 27 27 26 25 25 24 24
111 112 112 113 113 111 111 111 110 111 112 110 107 103 98 94 94 94 93 93 92 89 87 85 81 77 74 71 70 71 73 73 71 68 67 63 61 58 56 56 55 51 49 48 45 43 41 37 35 35 34 32 30 28 28 27 26 24 23 23 21 20 19 20 20 20 20 20 19 19 20 22 23 25 26 27 27 28 28 28 28 27 26 26 25 24
112 113 113 115 114 111 111 113 114 117 117 113 109 105 100 98 97 95 95 95 92 89 88 86 82 79 76 73 72 73 78 79 74 71 71 68 64 62 60 59 56 51 50 49 46 44 41 38 37 37 36 34 33 30 29 29 28 26 25 24 22 21 21 21 21 21 21 20 20 20 20 21 23 25 27 28 27 27 28 29 29 29 28 27 26 25
112 113 114 115 114 112 112 114 116 118 118 115 113 111 107 103 101 100 99 96 90 89 90 88 86 84 81 79 76 76 82 84 78 75 75 72 68 66 63 59 56 54 54 53 50 48 45 41 41 40 38 37 35 32 31 31 30 29 27 26 24 23 23 23 22 22 21 21 21 21 21 21 22 24 26 27 27 26 27 29 29 29 29 28 28 27
111 113 115 115 114 113 115 116 117 118 117 116 116 114 110 107 106 104 102 96 92 92 92 90 89 87 83 81 79 80 86 89 82 77 76 73 70 66 62 59 58 57 57 55 52 50 47 45 44 42 40 39 37 35 34 33 33 32 30 28 27 26 26 25 24 23 22 22 23 23 23 22 21 22 23 25 26 26 27 29 30 30 30 30 30 29
109 112 114 115 115 115 117 118 118 118 117 118 117 114 111 109 108 105 101 98 97 96 94 93 93 90 85 84 82 83 89 89 82 76 72 71 69 64 61 62 61 61 60 57 54 51 49 48 47 45 43 41 39 38 38 37 36 35 33 31 29 29 28 28 27 26 25 25 25 24 23 22 22 21 22 23 25 27 28 29 30 31 31 31 32 31
106 110 113 115 115 117 119 119 119 117 118 119 118 114 112 112 110 106 102 99 97 96 95 95 95 92 90 89 86 84 88 87 82 78 74 72 71 67 65 67 67 65 64 60 56 54 51 49 48 47 45 43 42 41 41 41 39 39 36 33 32 31 30 30 29 28 27 26 26 24 23 22 22 21 22 23 25 26 28 29 30 31 31 33 33 33
102 107 111 114 115 117 118 118 118 117 117 118 118 116 114 114 113 109 103 98 95 95 96 96 96 94 92 91 86 83 86 86 84 83 78 74 73 72 70 70 69 67 64 60 56 53 51 50 49 48 47 46 46 45 44 44 43 41 39 35 34 33 33 32 31 30 29 28 27 25 24 23 23 22 23 23 25 26 28 30 31 31 32 33 34 34
99 104 109 113 115 116 117 118 118 118 118 118 118 117 116 116 114 109 103 98 95 96 97 97 96 94 93 91 84 81 86 88 87 86 81 76 75 75 73 71 69 68 65 61 59 56 53 51 51 50 50 49 48 47 47 47 45 43 41 38 36 35 35 34 33 32 31 29 28 27 26 24 24 24 24 24 25 27 28 30 31 32 33 34 34 34
95 100 106 111 114 115 117 118 118 120 121 120 118 118 117 117 113 109 106 102 100 99 99 97 95 95 94 90 83 81 88 90 87 87 85 81 79 77 75 71 67 66 65 62 60 58 55 53 53 52 52 52 51 50 50 50 48 46 43 41 38 37 36 35 34 33 32 31 30 29 27 26 26 26 26 26 26 26 28 30 32 33 35 35 34 34
91 96 102 107 111 114 117 119 119 122 123 121 119 119 119 117 113 111 109 107 104 103 101 98 97 97 94 88 84 86 92 91 87 88 88 86 84 81 78 72 64 61 61 59 58 59 56 54 54 54 54 53 53 53 53 52 50 48 45 42 39 38 38 37 36 34 33 33 32 31 29 28 28 28 27 27 27 27 28 30 32 33 35 35 36 36
86 91 98 104 108 112 117 120 121 121 122 120 119 119 118 117 113 111 111 110 108 105 101 99 100 98 92 88 87 91 95 93 89 89 90 90 87 82 80 76 68 63 62 61 60 60 59 58 57 56 55 55 56 56 55 53 51 49 46 44 41 40 39 38 37 36 35 35 34 33 31 31 31 30 29 29 29 28 29 31 32 33 35 36 37 38
82 87 94 100 105 110 116 121 122 120 118 119 120 119 117 115 113 112 112 112 109 105 102 100 100 98 94 92 92 95 99 97 92 92 93 91 87 83 81 78 73 68 65 64 62 62 61 60 59 57 57 58 58 58 56 55 52 50 47 45 43 41 40 39 38 37 37 37 36 35 34 33 32 31 31 30 30 30 30 32 33 34 35 36 38 39
79 84 91 96 102 107 114 119 121 120 117 117 119 120 117 114 114 114 113 112 110 107 105 102 100 99 96 94 94 98 102 100 95 95 95 90 86 84 83 81 77 72 68 65 63 63 62 61 59 58 59 61 61 59 58 56 53 50 48 47 44 42 41 40 40 39 40 40 38 37 37 36 34 33 33 32 32 31 32 33 34 35 36 37 38 39
77 83 88 93 99 104 110 116 119 118 114 114 118 120 117 114 113 113 112 112 113 112 108 104 101 100 97 95 97 101 105 103 98 97 94 88 86 86 85 82 80 77 73 70 68 66 64 62 61 60 62 63 63 61 59 56 53 51 50 48 46 45 43 42 42 42 43 43 40 39 39 37 36 35 34 34 34 33 33 33 34 36 37 37 38 40
75 80 86 91 95 100 106 112 115 114 112 113 117 118 116 114 113 113 113 115 117 115 110 107 103 100 98 97 99 103 106 104 100 96 92 88 87 87 86 82 80 78 75 73 72 70 67 64 63 63 65 66 64 62 59 57 54 52 51 49 49 47 46 45 44 45 46 45 42 41 41 39 37 37 36 36 35 34 34 34 35 36 37 38 39 41
72 77 82 86 91 97 103 108 110 111 112 114 115 116 117 117 116 115 116 117 117 115 112 110 106 103 100 100 102 105 105 103 99 95 91 89 89 88 86 83 81 79 77 74 72 70 69 67 65 66 68 68 65 62 59 57 55 54 53 52 52 50 49 49 48 47 48 46 44 44 43 41 39 39 38 38 37 36 35 35 35 36 37 38 39 41
69 74 79 82 87 93 99 103 106 108 110 113 114 116 119 121 120 119 118 118 117 116 114 112 109 106 103 102 103 105 105 102 99 95 93 91 91 89 87 84 81 80 79 77 74 72 71 69 68 69 70 68 65 62 59 57 57 56 56 55 54 53 53 51 49 49 49 48 47 47 45 43 41 41 39 39 38 37 36 36 36 37 37 38 39 40
65 71 75 79 84 90 95 98 102 105 109 113 115 117 120 123 123 121 118 117 118 117 115 114 112 108 105 104 105 106 105 102 100 96 94 93 92 90 88 85 83 81 80 79 77 74 73 71 71 71 71 68 65 63 60 59 59 59 59 58 56 55 55 53 51 51 51 50 49 49 46 43 43 42 40 39 39 38 38 37 37 38 38 38 39 40
62 68 72 76 81 86 90 95 100 104 107 112 116 119 121 123 124 122 118 117 116 116 116 115 114 110 107 105 106 106 105 103 100 96 94 94 93 91 89 86 84 82 80 79 77 76 75 74 73 72 71 68 66 63 61 61 62 62 61 60 58 57 56 55 53 53 52 51 50 49 46 45 44 42 41 40 40 39 39 38 38 38 38 38 39 40
58 64 68 73 79 83 86 91 97 101 106 112 116 118 120 121 123 123 120 117 115 114 115 116 115 112 109 107 107 107 106 104 100 97 95 95 94 92 90 88 86 84 82 79 78 77 77 75 74 73 71 69 67 65 63 64 64 64 63 62 59 57 57 56 55 54 53 52 51 49 47 46 45 43 42 42 41 40 40 39 39 39 38 38 39 40
55 60 64 69 75 80 83 88 93 98 104 110 114 116 118 120 122 123 121 117 113 113 115 116 115 114 111 109 108 108 106 104 100 97 96 96 94 92 91 90 88 86 83 81 80 79 77 76 75 73 71 70 68 66 66 66 65 65 64 62 59 58 59 58 55 54 54 53 51 50 48 47 46 44 44 44 42 41 40 40 39 39 39 39 39 40
51 56 61 66 72 76 79 84 90 95 102 107 110 113 116 119 121 122 121 117 113 113 114 115 116 115 113 110 108 108 107 104 101 98 97 96 94 92 92 92 91 88 84 82 81 79 77 76 75 74 72 71 69 68 68 67 67 66 65 62 60 61 60 57 55 56 55 54 53 52 50 48 47 46 45 45 44 43 42 41 40 40 41 41 41 41
48 53 58 63 68 72 75 80 86 92 99 103 107 110 114 117 119 120 120 118 115 114 114 115 116 116 115 112 109 108 107 104 101 99 97 95 93 92 92 93 92 88 85 83 82 80 78 76 75 74 73 72 71 70 69 68 68 67 65 63 63 61 59 57 56 57 57 56 54 53 51 49 48 47 46 46 45 44 43 42 42 42 42 43 42 42
46 50 55 60 64 68 73 77 83 89 94 99 103 107 111 114 117 118 118 118 117 116 114 115 116 117 116 113 110 109 107 105 102 99 97 94 93 92 93 93 92 89 86 84 82 80 79 77 76 75 74 73 72 71 70 69 68 67 66 65 63 61 59 58 59 59 59 57 55 54 52 50 49 48 48 48 47 45 44 43 43 43 44 44 43 43
43 48 53 57 61 66 70 75 80 85 89 94 99 104 108 111 114 116 117 117 117 116 114 114 116 117 117 115 112 110 108 106 103 100 97 95 93 92 93 93 91 89 87 85 83 81 79 78 77 76 75 74 73 72 71 70 69 68 67 66 64 62 62 61 61 60 60 58 56 55 53 51 51 50 50 49 47 46 45 44 44 44 44 44 44 44
41 45 49 54 58 63 68 73 77 81 85 90 95 101 106 108 110 113 114 115 117 116 115 115 116 118 118 116 114 111 109 106 104 101 98 95 93 93 93 92 91 89 88 86 84 82 80 79 78 77 76 76 74 73 72 71 70 69 68 67 65 65 64 63 63 62 61 59 58 56 54 53 53 52 51 49 48 47 46 46 45 45 44 44 45 45
38 42 47 51 55 59 64 70 75 79 83 88 93 99 103 105 107 109 110 113 115 116 116 116 117 118 118 117 116 113 109 107 105 102 99 96 93 92 91 91 89 88 87 86 85 83 81 80 79 78 77 77 76 74 73 72 71 69 68 68 67 67 66 65 64 63 62 61 58 56 55 55 54 53 52 50 48 47 47 47 46 45 45 46 46 46
Wind_Direction
226 226 225 226 228 227 227 226 226 229 231 234 235 234 234 234 236 237 238 240 241 241 241 240 241 240 237 234 232 229 225 224 223 208 207 234 239 223 224 227 227 232 231 211 172 169 216 206 187 177 170 165 169 173 167 158 152 151 158 164 165 165 165 166 165 164 163 160 157 151 142 129 113 104 99 97 96 97 99 99 98 95 92 88 86 86
226 225 226 227 228 227 227 227 228 229 229 232 234 234 233 232 233 235 235 237 236 235 236 237 236 232 228 227 226 222 218 215 208 194 206 230 225 212 219 221 222 225 222 212 180 160 191 206 188 179 173 166 166 175 173 164 158 155 157 164 170 172 173 174 175 175 175 174 173 170 161 144 123 110 103 101 101 102 102 102 101 97 94 90 88 88
226 225 227 228 227 227 226 227 228 228 228 231 234 234 232 230 230 232 233 233 231 231 232 232 231 227 223 222 219 213 209 208 202 193 203 218 214 207 213 217 218 220 216 211 187 160 172 195 187 176 173 169 166 173 180 173 166 163 161 163 170 176 180 182 183 183 184 186 185 183 176 157 132 115 108 106 106 106 105 104 103 100 97 94 92 91
226 225 227 227 227 226 226 226 227 227 227 229 232 233 231 228 225 226 228 228 226 227 227 227 226 224 221 215 210 207 204 202 198 196 202 206 202 198 206 211 213 218 218 211 194 166 164 184 188 178 173 172 171 173 180 181 174 170 167 166 168 172 179 183 186 188 190 191 190 189 183 170 147 126 116 111 110 109 108 106 104 102 99 96 93 92
226 225 226 226 226 226 225 226 227 227 227 228 229 230 230 225 221 221 223 224 223 222 223 222 221 220 217 209 206 205 202 199 196 200 206 200 193 194 201 204 205 214 219 213 200 174 162 179 187 183 176 173 175 175 179 185 183 177 173 171 168 167 170 175 180 184 186 187 187 186 181 170 157 139 126 117 114 112 109 107 104 102 100 96 93 92
226 226 226 226 226 226 226 226 226 226 226 227 228 229 229 225 219 218 220 222 221 217 216 215 215 216 214 208 206 205 203 199 194 201 204 194 189 195 200 201 204 209 213 213 206 184 169 182 188 185 177 171 174 176 179 186 189 186 182 178 173 170 169 168 170 171 173 176 178 177 175 170 164 150 135 123 118 116 111 108 104 101 98 95 93 92
227 227 227 226 226 225 225 226 226 226 226 227 227 228 228 225 220 217 216 219 218 216 214 212 212 214 213 210 207 206 204 198 194 200 199 189 186 191 194 198 203 206 207 208 210 196 179 183 191 188 179 171 170 175 180 187 192 194 193 185 180 176 174 172 170 169 170 174 176 178 178 175 164 151 141 130 123 118 111 106 104 101 98 96 94 94
226 228 227 226 226 225 225 225 225 226 225 226 228 227 227 226 222 218 215 217 218 216 213 211 213 215 214 214 210 206 201 197 195 195 192 186 182 184 189 195 199 202 201 201 212 214 194 183 185 187 182 175 171 173 179 187 193 198 198 193 188 184 180 179 177 176 178 180 183 186 186 177 163 155 149 137 122 114 105 97 93 91 90 91 94 97
226 227 226 225 226 225 224 225 225 224 224 225 227 227 226 226 224 220 215 215 218 215 210 210 213 214 213 215 213 207 200 196 193 188 188 187 183 182 187 193 197 198 195 194 207 225 212 186 181 184 183 179 177 175 177 183 192 199 201 199 197 192 188 187 185 184 187 189 191 193 189 179 172 174 169 157 147 132 117 102 87 76 75 77 82 91
227 227 226 224 226 225 224 224 224 223 222 224 226 226 226 226 225 222 215 213 216 213 209 211 213 213 212 210 210 206 198 193 190 186 188 187 183 184 186 189 195 194 190 191 204 228 227 195 182 186 185 182 179 176 175 180 189 196 199 201 202 201 197 195 193 193 194 195 195 194 190 187 190 195 192 193 199 200 200 192 113 66 59 65 68 73
228 228 226 224 226 225 224 224 223 222 222 223 224 224 225 226 224 222 216 212 212 209 209 212 213 213 212 209 206 201 196 192 188 186 186 183 183 190 190 188 192 191 188 191 203 222 230 211 189 185 187 184 179 177 177 179 185 191 195 199 203 205 206 204 201 201 202 200 198 195 193 195 202 206 205 208 218 226 235 249 282 323 356 20 42 46
228 228 226 224 225 227 226 226 224 221 222 223 223 222 224 225 224 221 216 211 206 207 211 212 212 211 209 207 203 199 196 191 188 187 186 184 186 190 191 189 188 191 193 194 203 214 223 222 201 185 186 188 185 182 181 180 181 185 190 197 201 204 209 212 209 209 208 205 202 200 198 201 207 210 211 214 221 227 237 254 281 300 314 316 317 320
227 227 226 223 223 226 226 226 225 222 222 223 222 221 223 225 223 220 216 209 204 209 213 212 211 209 206 204 200 198 198 192 188 189 187 185 186 188 192 191 186 192 198 197 203 211 215 221 213 195 187 185 187 186 183 183 182 182 185 192 200 204 209 214 215 217 216 212 209 207 205 207 211 214 216 221 224 226 231 239 252 272 286 295 303 307
227 226 226 224 222 224 226 225 224 222 221 222 222 221 222 225 224 220 216 209 206 211 213 212 209 205 206 206 198 197 199 194 191 190 188 188 189 189 192 193 189 192 199 199 203 209 210 214 217 210 196 187 186 185 183 183 182 183 185 188 194 202 209 214 217 221 222 220 219 216 215 215 214 216 220 224 227 227 227 230 237 250 264 277 291 299
226 225 226 225 222 223 225 225 223 222 220 221 221 219 220 223 223 220 217 211 208 211 212 211 206 203 208 210 201 197 198 197 194 192 191 191 190 190 192 193 191 194 200 202 204 207 209 209 211 214 209 198 191 187 186 184 182 183 185 188 191 196 205 212 216 220 223 225 226 226 225 225 222 221 223 226 228 229 229 232 236 243 256 269 281 290
225 224 224 224 222 221 224 224 222 221 220 220 220 219 218 221 222 220 218 214 210 210 210 209 204 203 209 210 203 199 199 199 197 194 193 194 193 193 193 194 194 196 199 202 205 207 207 207 208 210 212 210 203 196 191 187 186 185 186 188 191 194 201 208 212 218 223 226 229 230 231 231 231 229 228 228 230 232 235 238 240 244 253 264 274 280
225 224 223 223 222 221 222 223 222 221 220 220 220 219 216 219 221 219 217 216 213 210 208 207 205 205 209 209 203 201 202 202 200 198 196 196 195 193 193 196 197 198 200 201 204 206 207 208 208 208 210 213 214 209 201 193 189 188 188 190 192 196 200 204 207 211 217 224 228 231 232 233 235 235 234 233 233 234 237 240 242 245 251 259 266 271
224 224 223 222 222 222 222 224 223 221 220 220 221 219 216 217 221 219 216 217 214 211 210 209 209 207 208 210 205 201 205 206 204 203 200 198 196 193 194 197 198 201 205 205 206 207 209 211 210 210 211 210 213 215 212 205 196 191 190 192 194 198 201 203 204 205 210 218 224 230 233 234 236 237 237 237 236 236 239 241 243 246 250 255 260 265
223 224 223 222 221 221 222 223 224 222 221 221 221 219 216 217 219 218 216 216 215 212 210 210 212 209 206 210 208 203 207 210 207 206 204 201 198 196 197 198 198 201 204 207 208 208 214 217 213 212 213 212 213 215 217 217 212 204 197 196 197 200 204 205 204 204 206 212 219 226 232 235 237 239 239 238 238 238 240 243 245 247 250 253 257 261
222 223 222 220 220 220 221 221 222 221 221 222 221 220 218 217 219 218 214 214 215 214 211 210 213 211 206 209 211 206 208 211 208 206 206 204 201 200 200 200 200 201 200 204 206 206 215 222 219 215 214 215 216 216 219 223 223 220 210 203 203 202 205 207 206 206 206 209 213 218 224 231 235 238 240 240 239 239 241 243 245 247 249 252 255 258
221 222 221 219 219 219 220 220 220 220 220 222 222 220 219 219 219 219 215 213 214 214 212 210 213 213 209 209 212 210 209 212 210 208 207 207 204 203 203 204 205 204 201 203 204 205 212 219 222 221 217 218 219 218 220 222 223 225 222 216 211 207 207 210 211 212 211 212 215 217 220 225 228 234 239 242 243 242 242 243 245 246 248 251 255 257
220 221 220 218 218 218 219 219 219 219 219 220 221 219 218 218 218 219 216 213 214 214 213 210 212 214 212 210 212 213 211 211 212 210 208 208 207 205 206 207 208 208 206 206 207 208 211 215 221 224 221 219 222 222 222 223 223 225 227 227 222 217 215 215 215 216 217 218 220 222 225 227 227 230 234 239 243 244 244 245 245 246 248 251 254 257
220 220 219 218 218 217 218 219 218 218 217 218 219 218 216 216 216 217 215 213 213 214 214 211 211 213 213 212 213 216 214 211 213 214 210 209 209 207 207 209 210 211 211 210 210 211 212 215 220 224 224 223 224 226 226 225 225 224 225 228 228 225 223 222 222 221 221 222 222 224 228 232 234 234 234 236 240 244 246 247 248 247 248 250 252 255
219 219 218 218 217 217 218 219 218 219 218 218 218 218 215 215 215 215 214 213 211 212 212 212 211 213 213 212 214 218 218 213 213 216 215 211 211 210 208 210 212 212 213 213 213 214 214 217 221 223 225 226 225 227 228 227 226 225 224 225 227 227 227 227 227 225 225 225 224 222 223 229 236 239 239 238 239 241 244 247 249 249 249 250 251 253
218 218 217 217 216 215 216 217 217 218 219 218 219 219 217 216 216 215 214 213 211 211 211 211 210 212 213 213 214 217 221 218 212 214 218 215 212 212 211 212 214 213 214 217 218 219 219 220 223 224 226 229 228 227 229 230 230 227 226 226 227 229 229 229 229 230 231 232 230 227 223 224 230 236 240 241 241 241 242 245 248 250 250 251 251 253
218 218 217 217 216 214 214 215 215 216 217 217 217 218 217 216 216 216 215 215 212 211 212 211 210 211 211 212 214 216 222 222 214 212 218 218 214 214 213 213 215 214 215 218 220 222 224 224 225 226 228 231 231 230 229 231 232 231 229 228 227 229 231 231 232 234 235 237 237 234 230 226 226 231 237 242 243 242 243 244 246 248 250 251 252 252
218 217 217 217 216 214 214 215 216 216 217 216 215 215 215 214 214 215 215 214 212 211 212 212 210 210 210 210 213 215 220 224 219 212 215 218 216 216 216 215 216 216 216 217 218 220 222 223 225 228 230 232 233 232 231 230 232 232 231 230 228 230 232 233 235 235 236 238 241 241 240 237 233 233 236 240 243 244 244 245 246 248 249 250 251 251
218 217 217 217 215 214 214 215 215 216 217 217 216 214 214 214 214 214 214 212 211 211 211 211 211 210 209 210 212 216 219 222 221 215 215 218 218 217 217 218 218 219 219 219 218 220 221 221 224 226 228 231 233 234 233 231 231 231 230 229 228 229 232 233 234 235 235 237 240 242 244 246 245 242 240 240 242 243 243 245 246 246 247 248 250 251
218 218 217 217 215 214 214 214 215 215 215 216 216 214 214 214 214 214 213 211 210 210 210 211 211 209 208 209 211 217 221 221 221 219 217 219 221 219 218 220 220 220 222 222 221 221 221 221 223 225 227 229 231 232 233 233 232 231 230 227 227 229 231 233 234 235 235 236 240 244 247 251 253 253 250 246 244 242 241 242 244 245 245 246 247 249
218 217 217 217 215 215 214 214 214 214 215 216 216 214 213 214 215 214 214 212 211 210 210 211 212 209 208 209 209 215 222 220 219 221 218 218 221 219 217 219 220 220 222 222 221 222 222 222 223 224 226 227 229 230 232 233 232 232 231 228 228 229 231 233 235 236 237 238 242 246 249 251 254 256 256 253 249 246 243 242 243 244 245 245 246 247
217 217 217 217 216 215 215 214 213 214 215 215 215 214 213 214 214 213 213 212 212 212 211 211 212 210 210 211 209 213 221 220 217 219 218 218 220 220 218 218 220 221 222 223 222 223 224 225 225 225 225 226 227 228 230 233 232 233 233 230 229 230 232 233 235 237 238 239 242 245 247 249 252 254 254 254 253 252 248 245 243 243 244 245 245 246
216 216 216 216 216 216 215 214 213 213 214 215 215 214 213 213 213 212 212 211 211 213 213 212 212 211 211 211 208 212 221 221 217 217 217 217 220 222 221 220 221 222 222 222 222 221 221 223 223 224 225 225 227 227 229 232 232 233 233 231 229 230 232 234 235 237 239 240 242 244 246 248 250 252 253 253 253 253 252 250 246 244 244 245 245 246
216 215 215 215 215 215 216 215 213 212 213 214 214 214 214 213 212 211 211 211 210 212 213 212 213 212 211 209 207 212 222 223 219 218 216 217 219 222 222 221 221 224 224 224 224 222 221 222 222 222 224 224 225 227 228 230 231 232 233 232 230 231 233 235 236 239 241 242 243 245 246 248 250 252 253 254 254 254 254 253 250 247 246 245 245 246
217 215 215 215 214 214 215 216 214 212 212 212 213 213 214 213 212 210 210 210 210 211 211 211 212 212 211 208 205 212 221 222 219 219 218 217 218 221 222 221 220 222 222 223 225 222 220 222 222 222 223 223 224 226 227 229 230 231 233 232 231 231 233 235 237 239 242 243 243 245 247 247 248 250 252 254 255 255 254 253 252 251 249 248 247 246
216 215 215 215 214 213 214 216 216 214 212 211 212 213 213 212 211 210 210 210 210 211 211 210 211 211 209 206 205 213 221 221 219 219 219 217 217 218 221 222 222 222 222 223 224 221 219 220 221 221 222 223 223 225 226 228 229 230 232 232 231 231 233 235 237 239 241 243 244 245 246 247 249 251 253 255 255 255 254 254 253 252 251 250 248 247
215 215 215 214 213 212 213 215 216 215 212 210 211 213 213 212 211 210 210 210 210 210 211 211 211 211 208 205 206 213 220 221 218 219 220 218 217 217 219 221 222 223 224 224 224 221 221 221 220 220 222 222 224 225 227 228 229 229 231 231 231 231 232 234 237 238 240 242 243 245 246 248 250 252 254 255 256 256 255 255 254 253 252 250 249 249
213 213 214 214 213 212 213 214 215 215 212 210 211 212 212 211 211 209 209 210 210 210 211 211 211 211 209 205 206 213 220 220 218 219 221 220 218 217 218 219 221 221 223 224 224 223 222 222 221 221 223 224 225 227 227 228 229 229 230 231 231 231 232 233 236 238 240 241 243 245 247 248 250 252 254 256 257 257 258 257 257 256 254 252 250 250
211 212 213 213 212 212 212 213 215 214 212 210 211 212 211 211 211 210 208 209 210 210 210 210 211 211 209 206 207 213 219 220 218 219 221 220 219 219 218 218 219 221 223 225 226 225 224 222 221 223 225 227 228 228 229 229 229 229 229 230 231 231 231 232 234 237 239 241 242 244 247 248 250 252 254 257 258 260 261 261 260 258 257 254 252 251
211 211 212 212 211 211 212 213 214 213 211 210 210 211 210 210 211 210 209 209 210 209 208 209 210 210 209 207 208 213 219 220 218 218 220 220 221 221 220 218 218 220 222 224 226 225 225 223 223 223 226 228 229 229 229 230 230 230 229 229 231 231 230 230 232 235 238 240 241 244 246 247 249 251 254 256 259 261 263 263 262 261 259 257 255 254
211 211 211 212 211 211 212 212 212 211 210 210 210 209 209 209 210 210 209 209 210 209 208 208 209 209 209 208 209 214 218 220 218 218 219 220 221 222 222 220 218 219 220 222 224 224 224 224 223 224 226 228 229 229 230 230 231 230 230 230 231 231 230 230 231 233 237 239 240 242 244 246 248 251 253 256 259 262 264 264 264 262 260 259 258 257
210 210 211 211 211 211 211 211 211 210 209 209 209 208 208 208 209 210 208 208 209 208 207 207 208 208 208 208 210 214 217 219 218 217 217 219 221 222 223 221 220 219 219 221 223 224 224 224 224 225 227 228 230 230 230 230 230 231 231 231 231 231 231 232 232 233 236 239 240 241 244 246 249 252 254 257 260 262 265 266 265 263 261 260 260 259
209 210 210 210 210 211 210 210 209 209 208 208 208 208 207 208 209 209 208 207 208 207 207 207 207 208 208 209 211 214 216 218 217 216 216 219 220 222 223 223 221 220 219 220 222 223 224 224 224 226 228 229 229 229 229 229 230 231 232 232 231 232 232 233 233 234 236 238 240 243 245 247 250 252 255 258 260 263 265 266 266 264 262 260 260 261
209 210 209 208 210 210 210 209 208 207 207 208 208 207 207 207 208 209 208 207 207 206 206 207 207 207 208 209 211 214 215 217 217 215 216 218 219 221 222 223 222 221 220 220 221 221 223 224 225 226 228 228 229 229 229 229 230 231 232 232 231 232 233 234 234 235 237 239 241 244 246 248 251 254 256 258 260 263 265 266 266 265 262 260 260 261
209 210 209 208 209 209 209 208 208 206 206 207 208 207 207 207 207 208 208 207 206 205 206 207 207 207 208 209 212 214 215 216 216 215 215 217 219 220 221 223 223 223 221 220 221 221 222 223 225 226 228 228 229 229 228 229 231 232 232 232 232 232 234 235 235 237 238 239 242 244 246 248 251 253 255 258 260 262 265 267 267 264 262 260 259 260
209 210 209 208 209 209 208 207 207 206 206 207 207 207 207 206 207 208 208 207 206 205 206 207 206 207 208 209 212 214 215 215 215 214 215 217 218 218 220 222 223 223 222 221 222 222 222 223 224 226 227 228 229 229 229 230 231 232 233 233 232 232 233 234 236 237 239 240 242 244 246 248 251 253 255 257 260 263 265 266 266 263 261 259 258 259
209 209 208 209 209 209 208 207 206 206 206 207 207 207 207 206 207 207 207 206 205 205 206 207 206 207 208 209 211 214 215 215 215 214 214 216 217 218 220 222 223 223 222 222 223 223 222 223 224 225 226 227 227 228 229 230 231 232 233 233 233 233 234 235 235 237 238 239 241 243 246 248 250 253 255 257 260 263 265 266 265 263 260 259 258 257
209 208 208 209 209 208 208 207 207 206 206 206 206 206 207 207 207 207 206 205 205 205 206 206 207 207 207 209 211 214 215 215 215 215 215 215 216 217 219 221 223 223 222 223 223 224 223 224 224 225 226 226 227 228 229 230 231 232 233 233 233 234 234 234 235 236 238 239 241 244 246 249 251 252 255 257 260 263 265 266 266 264 261 259 258 257
208 208 208 208 208 207 207 207 207 207 206 205 205 205 207 207 207 207 206 205 205 205 205 206 206 207 207 208 211 213 215 215 215 215 214 215 215 217 219 221 222 222 223 223 223 224 224 224 225 225 226 227 227 228 229 230 231 232 233 234 234 235 235 234 235 237 239 240 242 245 247 249 251 252 255 257 260 263 265 267 267 265 263 261 260 259
208 207 207 207 206 206 206 206 207 207 207 205 204 205 206 206 206 206 206 204 204 205 205 206 206 207 207 208 210 213 214 215 215 215 214 214 215 216 219 221 221 222 222 223 224 224 224 225 225 226 226 227 228 229 230 231 231 232 233 234 234 235 235 235 236 238 240 242 244 246 248 249 251 252 255 258 260 263 265 266 266 265 263 262 260 260
207 207 207 207 206 205 205 205 206 206 206 205 204 204 206 206 206 206 205 204 204 205 205 206 207 207 207 208 210 212 214 214 215 215 215 215 215 216 218 220 221 221 222 222 223 224 225 225 226 226 227 228 228 229 230 231 232 233 234 234 235 235 236 236 238 239 241 243 245 247 249 250 251 253 256 258 261 263 265 266 266 265 263 261 260 259
207 206 206 206 206 205 205 205 205 205 205 205 203 204 205 205 205 205 205 204 204 204 205 206 207 207 207 208 209 211 213 214 214 214 214 215 216 217 218 220 221 222 222 223 223 224 225 226 227 227 228 228 228 229 230 231 232 233 234 235 236 236 237 238 240 242 243 245 247 249 250 251 252 254 257 259 261 263 264 266 266 265 263 261 260 260
Height
10907 10912 10917 10920 10919 10918 10920 10924 10925 10926 10931 10936 10939 10942 10947 10951 10954 10957 10960 10961 10963 10966 10967 10969 10972 10976 10979 10981 10983 10985 10988 10990 10993 10997 10999 11000 11000 11000 11000 11001 11001 11001 11000 10999 10997 10997 10999 10999 10998 10998 10998 10999 11000 11002 11003 11004 11005 11005 11006 11007 11008 11009 11010 11011 11011 11012 11013 11014 11014 11015 11015 11016 11017 11017 11018 11018 11019 11019 11019 11019 11019 11019 11019 11019 11019 11018
10901 10907 10912 10911 10910 10911 10915 10920 10921 10924 10930 10933 10934 10938 10943 10948 10951 10953 10956 10958 10960 10961 10963 10965 10969 10972 10975 10977 10979 10982 10985 10988 10991 10994 10996 10998 10999 11000 11000 11001 11001 11000 11000 10999 10997 10996 10998 10999 10999 10999 10999 10999 11000 11002 11004 11005 11006 11006 11007 11008 11009 11010 11010 11011 11012 11013 11014 11015 11016 11016 11017 11018 11018 11019 11019 11020 11020 11020 11021 11021 11021 11021 11021 11021 11021 11020
10896 10902 10904 10901 10902 10906 10910 10914 10917 10922 10927 10928 10929 10934 10939 10945 10948 10951 10953 10955 10956 10957 10959 10962 10965 10967 10970 10973 10975 10978 10981 10984 10987 10990 10995 10998 10999 10999 10999 11000 11000 10999 10999 10999 10997 10996 10996 10999 10999 10999 10999 10999 11000 11002 11004 11005 11005 11007 11007 11008 11009 11010 11011 11012 11013 11014 11015 11016 11017 11018 11019 11019 11020 11020 11020 11021 11021 11021 11022 11022 11022 11022 11022 11022 11022 11022
10888 10893 10892 10890 10894 10900 10905 10909 10912 10917 10921 10923 10925 10929 10935 10940 10944 10947 10949 10950 10952 10954 10956 10959 10961 10963 10966 10969 10972 10975 10977 10981 10984 10987 10993 10996 10996 10997 10998 10999 11000 11000 10999 10998 10997 10996 10996 10998 10999 10999 10999 10999 11000 11001 11003 11005 11006 11007 11008 11009 11010 11011 11012 11013 11014 11015 11016 11017 11018 11019 11020 11020 11021 11021 11021 11022 11022 11022 11023 11023 11023 11023 11024 11024 11023 11023
10879 10881 10880 10882 10888 10895 10900 10903 10907 10912 10916 10918 10921 10924 10928 10935 10940 10943 10944 10946 10949 10952 10954 10956 10958 10960 10963 10965 10968 10971 10974 10977 10979 10984 10990 10992 10993 10994 10995 10998 11000 11001 11000 10998 10997 10996 10996 10997 10999 10999 10999 10999 11000 11001 11003 11005 11006 11007 11008 11009 11010 11011 11012 11014 11015 11016 11017 11018 11019 11020 11020 11021 11021 11022 11022 11023 11023 11024 11024 11024 11024 11025 11025 11025 11025 11024
10869 10870 10873 10878 10884 10890 10894 10898 10902 10906 10909 10912 10917 10920 10923 10930 10936 10938 10941 10943 10946 10949 10950 10952 10955 10957 10959 10962 10964 10967 10970 10972 10975 10980 10985 10987 10989 10991 10993 10996 10998 10999 10999 10998 10996 10996 10997 10997 10998 10998 10998 10998 10999 11001 11002 11005 11007 11008 11009 11010 11011 11012 11013 11014 11015 11016 11018 11019 11019 11020 11021 11021 11022 11023 11023 11024 11024 11025 11025 11025 11025 11026 11026 11026 11026 11026
10862 10863 10867 10873 10877 10882 10887 10891 10896 10900 10904 10908 10912 10915 10918 10924 10930 10934 10937 10940 10942 10945 10946 10949 10952 10953 10955 10958 10960 10963 10966 10969 10972 10976 10980 10983 10986 10989 10992 10993 10995 10996 10997 10997 10997 10998 10998 10998 10999 10999 10998 10998 10998 11000 11002 11004 11006 11008 11009 11010 11011 11012 11013 11014 11016 11017 11018 11019 11019 11020 11020 11021 11022 11023 11024 11025 11025 11026 11026 11026 11026 11026 11027 11027 11027 11027
10853 10853 10858 10866 10869 10874 10880 10885 10889 10893 10899 10903 10906 10910 10914 10919 10925 10930 10934 10937 10939 10941 10944 10948 10949 10951 10954 10955 10957 10960 10963 10966 10969 10973 10977 10979 10983 10987 10989 10990 10993 10994 10996 10997 10998 11000 11000 10999 10999 10999 10998 10998 10997 10998 11000 11002 11004 11006 11008 11010 11011 11012 11013 11014 11016 11017 11018 11019 11019 11020 11021 11022 11023 11024 11025 11026 11026 11027 11027 11027 11027 11028 11028 11028 11027 11027
10841 10843 10850 10858 10860 10866 10874 10877 10879 10885 10893 10897 10899 10904 10910 10914 10920 10925 10930 10934 10935 10938 10943 10946 10947 10949 10951 10952 10955 10958 10960 10963 10967 10970 10973 10977 10980 10984 10985 10988 10991 10994 10996 10997 10999 11002 11002 10999 10998 10998 10998 10997 10997 10997 10998 11001 11003 11005 11007 11010 11011 11013 11014 11014 11015 11017 11018 11018 11019 11020 11021 11022 11024 11024 11025 11026 11027 11027 11028 11028 11028 11028 11028 11029 11028 11028
10832 10834 10840 10848 10852 10858 10864 10864 10869 10878 10886 10889 10892 10899 10905 10909 10914 10918 10925 10929 10931 10936 10942 10944 10945 10947 10948 10950 10953 10956 10958 10961 10964 10967 10970 10974 10978 10980 10982 10986 10989 10992 10993 10994 10998 11003 11003 10999 10998 10998 10997 10996 10996 10996 10997 10999 11001 11003 11006 11008 11011 11012 11013 11014 11015 11016 11017 11018 11019 11020 11022 11023 11024 11024 11025 11026 11027 11027 11028 11028 11029 11029 11029 11029 11029 11029
10821 10824 10831 10842 10845 10848 10852 10854 10862 10872 10877 10880 10886 10894 10899 10902 10907 10912 10919 10924 10928 10935 10940 10941 10943 10945 10946 10948 10951 10954 10956 10958 10961 10964 10968 10972 10975 10978 10981 10983 10986 10989 10991 10992 10998 11003 11003 11000 10998 10997 10997 10996 10996 10995 10996 10997 10999 11001 11004 11006 11009 11011 11013 11014 11015 11016 11016 11018 11019 11021 11022 11023 11024 11024 11025 11026 11027 11027 11028 11029 11029 11029 11029 11029 11030 11030
10808 10813 10823 10835 10837 10838 10843 10848 10856 10866 10870 10874 10881 10888 10892 10895 10901 10907 10914 10920 10927 10934 10936 10937 10940 10942 10945 10947 10949 10952 10953 10956 10960 10963 10966 10969 10973 10976 10979 10981 10983 10986 10989 10992 10997 11002 11002 11000 10998 10996 10996 10996 10996 10995 10995 10996 10997 10999 11002 11004 11007 11009 11011 11013 11014 11015 11016 11017 11019 11020 11022 11023 11023 11024 11025 11026 11026 11027 11028 11029 11029 11029 11030 11030 11030 11030
10794 10804 10812 10821 10826 10828 10834 10840 10849 10859 10864 10868 10875 10882 10885 10887 10894 10902 10909 10917 10926 10931 10931 10933 10936 10940 10943 10944 10946 10949 10951 10954 10958 10960 10963 10967 10970 10972 10975 10978 10980 10984 10987 10991 10995 10999 10999 10998 10997 10995 10995 10995 10995 10996 10996 10996 10996 10998 11000 11002 11005 11007 11009 11011 11013 11014 11016 11017 11018 11020 11021 11022 11023 11024 11025 11025 11026 11027 11027 11028 11029 11029 11030 11030 11030 11030
10784 10794 10799 10808 10816 10819 10823 10831 10841 10851 10857 10860 10867 10875 10879 10881 10888 10898 10905 10914 10922 10924 10925 10927 10932 10936 10939 10939 10942 10945 10948 10952 10955 10957 10961 10964 10967 10969 10973 10977 10978 10981 10985 10988 10991 10995 10996 10996 10996 10995 10994 10994 10994 10995 10995 10996 10996 10997 10999 11001 11003 11006 11008 11010 11012 11013 11015 11017 11018 11019 11020 11021 11022 11023 11024 11025 11025 11026 11027 11027 11028 11029 11029 11029 11030 11030
10773 10782 10788 10797 10808 10812 10814 10822 10832 10840 10845 10849 10855 10864 10870 10873 10881 10892 10899 10906 10913 10916 10918 10922 10927 10933 10934 10935 10939 10941 10944 10948 10951 10955 10959 10961 10964 10967 10970 10974 10976 10978 10982 10985 10989 10992 10993 10993 10993 10993 10993 10993 10993 10993 10994 10994 10995 10996 10997 10999 11001 11003 11005 11007 11010 11011 11013 11015 11017 11018 11019 11020 11021 11022 11023 11024 11024 11025 11026 11027 11028 11028 11029 11029 11029 11030
10758 10768 10775 10783 10794 10799 10801 10809 10819 10825 10832 10839 10844 10852 10862 10867 10873 10883 10890 10897 10903 10907 10911 10916 10923 10928 10928 10929 10934 10938 10941 10944 10947 10952 10955 10958 10961 10963 10967 10970 10973 10976 10981 10984 10987 10989 10989 10989 10990 10991 10991 10992 10992 10993 10993 10994 10995 10995 10997 10998 10999 11001 11003 11005 11007 11010 11012 11014 11015 11016 11018 11019 11020 11021 11022 11023 11024 11024 11025 11026 11027 11027 11028 11028 11029 11029
10746 10754 10758 10766 10778 10787 10791 10797 10805 10813 10823 10831 10835 10844 10858 10862 10864 10873 10883 10889 10897 10903 10907 10912 10917 10920 10921 10924 10930 10935 10938 10941 10944 10948 10950 10953 10957 10960 10964 10967 10969 10973 10978 10981 10983 10984 10985 10986 10987 10988 10989 10990 10991 10992 10993 10993 10994 10995 10996 10997 10998 11000 11001 11003 11005 11007 11009 11011 11013 11014 11016 11017 11018 11019 11020 11022 11023 11023 11024 11024 11025 11026 11027 11027 11028 11028
10732 10737 10744 10758 10771 10780 10786 10790 10797 10807 10816 10821 10826 10836 10848 10851 10853 10865 10875 10881 10890 10899 10904 10908 10911 10914 10917 10921 10926 10931 10934 10937 10940 10943 10946 10949 10953 10956 10960 10963 10967 10971 10974 10976 10978 10980 10982 10983 10984 10986 10987 10988 10989 10991 10992 10993 10993 10995 10995 10996 10998 10998 11000 11001 11003 11005 11007 11009 11010 11012 11013 11015 11016 11017 11019 11020 11021 11022 11022 11023 11024 11024 11025 11026 11026 11027
10720 10723 10732 10749 10761 10770 10777 10781 10787 10799 10807 10811 10817 10826 10836 10841 10845 10857 10868 10877 10886 10892 10896 10900 10903 10907 10913 10916 10920 10926 10929 10930 10934 10938 10942 10945 10949 10952 10955 10958 10962 10966 10970 10972 10974 10977 10980 10980 10981 10982 10984 10986 10987 10989 10990 10992 10993 10993 10994 10995 10996 10997 10999 11000 11002 11003 11005 11006 11008 11010 11011 11012 11014 11015 11017 11018 11019 11020 11020 11021 11022 11023 11024 11024 11025 11025
10706 10707 10718 10736 10748 10756 10761 10764 10773 10787 10796 10800 10806 10816 10827 10833 10838 10848 10861 10870 10876 10882 10888 10893 10897 10902 10908 10910 10913 10919 10921 10923 10929 10933 10938 10942 10946 10949 10951 10954 10957 10960 10964 10968 10970 10974 10977 10978 10978 10980 10982 10984 10985 10987 10989 10990 10992 10993 10994 10994 10995 10997 10998 10999 11000 11001 11002 11003 11004 11006 11008 11010 11011 11013 11014 11015 11016 11017 11018 11019 11020 11021 11022 11022 11023 11024
10687 10691 10706 10724 10734 10740 10744 10751 10763 10775 10784 10789 10797 10810 10822 10828 10834 10842 10853 10861 10866 10873 10881 10887 10891 10896 10901 10903 10906 10911 10915 10918 10923 10929 10934 10938 10942 10945 10948 10951 10953 10957 10961 10964 10967 10970 10974 10976 10976 10977 10979 10981 10983 10985 10986 10988 10990 10991 10993 10994 10994 10995 10996 10997 10998 10999 11000 11001 11002 11004 11005 11006 11008 11010 11012 11013 11014 11015 11016 11017 11018 11019 11019 11020 11021 11022
10667 10677 10694 10708 10715 10722 10729 10739 10752 10762 10772 10779 10786 10799 10812 10820 10827 10834 10845 10855 10861 10866 10873 10880 10885 10887 10890 10896 10900 10903 10907 10912 10917 10922 10928 10932 10936 10941 10945 10947 10951 10954 10957 10960 10962 10965 10967 10970 10973 10975 10977 10979 10980 10982 10983 10985 10987 10989 10991 10992 10993 10994 10995 10995 10996 10997 10999 11000 11001 11002 11003 11004 11006 11007 11009 11010 11011 11013 11014 11014 11015 11016 11017 11018 11019 11020
10657 10669 10684 10694 10702 10711 10718 10726 10737 10747 10757 10764 10769 10781 10795 10804 10812 10823 10836 10847 10852 10858 10865 10872 10876 10877 10883 10892 10896 10897 10901 10907 10912 10915 10920 10925 10930 10935 10939 10943 10947 10950 10953 10956 10958 10960 10962 10964 10969 10972 10974 10976 10978 10979 10981 10983 10984 10986 10988 10990 10992 10993 10994 10994 10995 10996 10997 10998 10999 11001 11002 11003 11004 11005 11006 11007 11009 11010 11011 11012 11013 11014 11015 11016 11016 11017
10646 10656 10669 10679 10687 10699 10708 10718 10731 10739 10744 10750 10757 10768 10784 10795 10804 10814 10825 10832 10838 10845 10853 10860 10866 10871 10878 10887 10890 10891 10895 10901 10906 10909 10913 10920 10924 10929 10935 10938 10941 10944 10948 10951 10954 10957 10959 10962 10966 10969 10971 10973 10975 10976 10978 10980 10981 10983 10985 10987 10989 10991 10992 10993 10994 10994 10995 10996 10997 10999 11000 11001 11002 11002 11004 11005 11006 11007 11008 11010 11010 11011 11012 11013 11014 11015
10632 10640 10653 10661 10668 10684 10696 10707 10721 10727 10732 10744 10754 10766 10782 10793 10798 10805 10813 10817 10825 10834 10841 10851 10861 10867 10874 10882 10884 10886 10887 10890 10897 10902 10905 10912 10918 10923 10928 10931 10934 10940 10944 10947 10950 10953 10957 10960 10963 10965 10967 10969 10972 10974 10975 10977 10979 10981 10983 10984 10986 10989 10990 10991 10992 10993 10993 10994 10995 10996 10998 10999 10999 11000 11001 11001 11003 11004 11006 11007 11008 11009 11010 11011 11012 11013
10617 10626 10639 10645 10656 10674 10684 10690 10699 10703 10710 10728 10743 10756 10771 10781 10786 10795 10802 10808 10821 10833 10838 10847 10857 10861 10868 10874 10877 10879 10877 10877 10887 10896 10898 10904 10911 10915 10920 10924 10930 10937 10941 10944 10948 10951 10953 10957 10959 10961 10963 10966 10968 10971 10973 10974 10976 10978 10980 10982 10984 10986 10988 10989 10990 10991 10992 10992 10993 10994 10995 10996 10997 10997 10997 10998 11000 11002 11003 11004 11005 11006 11007 11008 11009 11010
10604 10615 10624 10632 10647 10664 10671 10677 10685 10689 10699 10716 10727 10738 10752 10763 10772 10781 10787 10800 10819 10828 10830 10838 10847 10850 10856 10863 10867 10869 10867 10866 10876 10886 10889 10894 10903 10908 10914 10921 10927 10931 10934 10937 10942 10945 10948 10952 10955 10957 10960 10962 10964 10968 10970 10972 10974 10975 10977 10979 10982 10983 10985 10986 10988 10988 10989 10990 10990 10991 10992 10993 10994 10994 10995 10996 10997 10999 11000 11001 11002 11003 11004 11005 11006 11007
10593 10602 10610 10620 10636 10650 10657 10665 10673 10681 10695 10708 10715 10727 10741 10750 10758 10765 10776 10796 10810 10813 10818 10829 10837 10842 10850 10857 10859 10857 10855 10856 10864 10875 10884 10890 10896 10904 10912 10918 10923 10926 10928 10932 10937 10941 10945 10948 10950 10953 10956 10958 10961 10964 10966 10968 10970 10972 10974 10976 10978 10980 10981 10983 10984 10986 10987 10987 10988 10988 10989 10990 10991 10992 10993 10994 10995 10996 10997 10998 10999 11000 11001 11002 11003 11004
10580 10590 10599 10609 10623 10634 10640 10647 10658 10670 10683 10692 10703 10721 10734 10741 10749 10758 10772 10787 10793 10799 10812 10820 10824 10834 10842 10846 10850 10848 10845 10853 10863 10874 10886 10891 10895 10904 10911 10914 10917 10919 10922 10927 10933 10937 10941 10944 10946 10949 10952 10955 10957 10960 10961 10963 10966 10968 10970 10972 10974 10976 10977 10979 10981 10982 10983 10984 10984 10985 10987 10988 10989 10990 10991 10992 10992 10993 10994 10994 10995 10996 10998 10999 10999 11001
10568 10579 10588 10597 10610 10619 10624 10634 10649 10661 10671 10681 10694 10712 10725 10732 10742 10754 10766 10778 10785 10795 10806 10809 10814 10827 10830 10832 10842 10842 10840 10853 10865 10870 10879 10885 10889 10897 10903 10904 10907 10911 10914 10920 10927 10932 10937 10940 10942 10945 10948 10950 10953 10955 10957 10959 10961 10963 10966 10969 10970 10972 10974 10975 10977 10979 10980 10981 10982 10983 10984 10985 10986 10987 10988 10988 10989 10989 10990 10991 10992 10993 10994 10995 10996 10997
10554 10566 10575 10585 10598 10606 10613 10627 10641 10652 10663 10673 10684 10699 10712 10720 10730 10744 10758 10773 10785 10791 10796 10799 10807 10818 10822 10826 10839 10840 10835 10848 10860 10861 10869 10880 10884 10888 10892 10895 10900 10905 10910 10917 10924 10930 10934 10937 10940 10942 10944 10946 10948 10951 10953 10954 10957 10959 10962 10965 10967 10969 10970 10972 10973 10975 10976 10977 10978 10980 10981 10982 10983 10984 10984 10985 10986 10986 10987 10987 10988 10989 10990 10991 10992 10994
10541 10552 10562 10572 10584 10595 10605 10617 10631 10643 10653 10662 10673 10687 10699 10707 10719 10738 10754 10768 10778 10784 10788 10793 10801 10811 10816 10824 10839 10840 10831 10837 10850 10856 10865 10875 10878 10880 10885 10890 10895 10900 10906 10912 10917 10922 10927 10931 10934 10937 10939 10941 10943 10945 10948 10949 10952 10955 10958 10961 10963 10965 10967 10968 10970 10971 10972 10974 10975 10976 10977 10978 10979 10980 10980 10981 10982 10982 10983 10984 10985 10985 10986 10987 10988 10990
10530 10540 10549 10559 10572 10586 10595 10603 10616 10627 10633 10643 10661 10676 10687 10698 10714 10731 10744 10755 10765 10770 10777 10788 10799 10805 10809 10819 10835 10835 10822 10826 10842 10853 10861 10866 10868 10872 10877 10884 10890 10895 10901 10907 10911 10917 10922 10924 10927 10930 10932 10935 10938 10940 10942 10944 10947 10950 10953 10956 10959 10961 10963 10965 10966 10968 10969 10971 10971 10972 10973 10975 10975 10976 10977 10977 10978 10979 10980 10980 10981 10982 10982 10983 10985 10986
10519 10530 10540 10548 10560 10574 10583 10590 10600 10608 10616 10634 10653 10663 10674 10688 10704 10720 10732 10743 10752 10757 10766 10780 10788 10793 10802 10818 10830 10823 10811 10817 10832 10842 10849 10855 10859 10864 10870 10878 10886 10892 10897 10902 10906 10912 10917 10919 10921 10924 10926 10929 10932 10933 10936 10939 10942 10945 10948 10952 10956 10958 10959 10961 10962 10964 10965 10966 10967 10968 10970 10970 10971 10972 10973 10974 10974 10975 10976 10976 10977 10978 10979 10980 10981 10982
10510 10521 10528 10535 10548 10562 10571 10576 10583 10593 10610 10632 10644 10650 10662 10678 10695 10711 10722 10729 10739 10749 10760 10771 10776 10785 10800 10813 10818 10810 10802 10808 10821 10829 10836 10843 10851 10860 10868 10874 10881 10886 10892 10896 10900 10905 10910 10912 10915 10918 10920 10923 10924 10926 10930 10934 10937 10940 10943 10947 10950 10953 10955 10956 10958 10960 10961 10962 10963 10964 10965 10966 10967 10968 10969 10970 10970 10971 10972 10972 10973 10974 10975 10976 10976 10977
10502 10510 10516 10525 10537 10548 10554 10559 10569 10585 10606 10624 10633 10641 10656 10672 10688 10701 10710 10720 10734 10746 10755 10762 10768 10779 10791 10799 10802 10798 10791 10797 10811 10817 10821 10833 10848 10859 10865 10870 10875 10880 10885 10890 10895 10900 10904 10906 10910 10912 10914 10916 10918 10921 10925 10929 10932 10936 10939 10942 10945 10948 10951 10952 10953 10955 10956 10957 10958 10959 10961 10962 10963 10964 10964 10965 10966 10967 10967 10968 10968 10969 10970 10971 10972 10972
10491 10498 10505 10515 10525 10534 10541 10550 10560 10575 10596 10617 10627 10635 10648 10662 10674 10686 10699 10716 10730 10737 10744 10754 10762 10772 10783 10791 10794 10789 10781 10788 10801 10805 10812 10830 10846 10854 10857 10862 10868 10873 10878 10883 10888 10893 10897 10901 10905 10907 10908 10909 10912 10916 10920 10923 10928 10932 10935 10937 10941 10944 10946 10947 10949 10950 10951 10952 10953 10954 10956 10957 10958 10959 10960 10961 10962 10962 10963 10963 10964 10965 10966 10967 10968 10968
10479 10486 10494 10502 10512 10523 10533 10539 10548 10565 10591 10612 10619 10625 10639 10655 10667 10680 10694 10706 10713 10719 10732 10745 10754 10764 10776 10784 10785 10777 10772 10780 10792 10799 10811 10828 10838 10841 10848 10856 10861 10867 10872 10877 10881 10886 10891 10896 10899 10901 10901 10903 10906 10911 10915 10919 10924 10927 10930 10933 10935 10938 10941 10943 10944 10945 10945 10946 10948 10949 10951 10952 10954 10955 10955 10956 10957 10958 10959 10959 10960 10961 10962 10963 10963 10964
10471 10477 10484 10491 10502 10513 10521 10527 10541 10563 10587 10599 10605 10616 10634 10649 10659 10671 10683 10689 10694 10706 10723 10735 10744 10757 10768 10773 10772 10767 10765 10772 10785 10798 10811 10821 10826 10832 10841 10850 10856 10862 10867 10870 10875 10879 10884 10889 10892 10894 10894 10896 10901 10906 10910 10915 10919 10922 10925 10928 10930 10933 10936 10937 10938 10939 10940 10942 10944 10945 10946 10947 10949 10950 10951 10952 10952 10954 10955 10955 10956 10957 10958 10958 10959 10959
10464 10470 10477 10484 10494 10503 10510 10520 10536 10555 10572 10584 10595 10610 10624 10634 10642 10651 10662 10674 10686 10701 10715 10725 10735 10746 10755 10760 10761 10759 10759 10768 10782 10797 10807 10812 10817 10824 10832 10842 10850 10856 10860 10864 10869 10873 10878 10882 10885 10886 10887 10890 10895 10901 10906 10910 10914 10917 10920 10922 10924 10927 10929 10930 10932 10934 10935 10937 10939 10939 10940 10942 10944 10945 10946 10947 10948 10950 10950 10951 10952 10953 10953 10954 10955 10955
10458 10464 10470 10478 10487 10493 10501 10514 10529 10546 10561 10573 10585 10597 10608 10617 10625 10632 10645 10661 10675 10690 10704 10715 10724 10733 10741 10748 10751 10751 10755 10763 10776 10790 10799 10803 10809 10816 10824 10834 10842 10848 10854 10858 10863 10867 10871 10875 10878 10879 10881 10886 10891 10897 10902 10906 10909 10911 10914 10916 10919 10921 10922 10924 10927 10929 10930 10932 10933 10933 10935 10938 10939 10941 10942 10944 10945 10946 10946 10947 10948 10948 10948 10949 10950 10951
10452 10457 10464 10472 10479 10485 10495 10508 10521 10535 10549 10559 10570 10581 10593 10602 10610 10621 10638 10652 10663 10678 10694 10705 10715 10725 10732 10737 10741 10743 10749 10757 10768 10782 10791 10796 10802 10809 10816 10825 10833 10840 10847 10852 10856 10861 10865 10868 10871 10872 10876 10882 10887 10891 10896 10900 10902 10904 10907 10910 10913 10914 10916 10920 10923 10923 10924 10926 10928 10929 10931 10933 10935 10936 10938 10940 10941 10941 10942 10943 10943 10944 10944 10945 10946 10946
10447 10452 10458 10465 10471 10478 10489 10500 10509 10522 10537 10547 10555 10567 10578 10589 10601 10616 10632 10643 10656 10671 10685 10695 10706 10716 10723 10729 10732 10736 10742 10750 10760 10775 10784 10789 10795 10802 10809 10817 10824 10831 10838 10845 10850 10855 10858 10861 10865 10867 10871 10877 10881 10886 10891 10893 10895 10897 10900 10903 10906 10909 10912 10915 10916 10918 10919 10921 10923 10924 10927 10929 10930 10932 10934 10935 10936 10937 10938 10939 10939 10939 10940 10940 10941 10941
10443 10447 10454 10461 10465 10472 10482 10492 10501 10514 10527 10534 10543 10555 10569 10581 10594 10605 10618 10632 10649 10664 10674 10685 10698 10707 10715 10721 10723 10727 10735 10742 10753 10767 10776 10780 10787 10796 10802 10808 10815 10822 10831 10838 10843 10847 10851 10856 10859 10862 10867 10871 10875 10880 10884 10885 10887 10891 10893 10896 10901 10906 10908 10909 10911 10913 10915 10916 10918 10920 10922 10924 10926 10928 10929 10930 10931 10932 10933 10934 10934 10934 10935 10936 10936 10936
10438 10443 10450 10456 10460 10467 10476 10486 10496 10509 10517 10523 10534 10548 10562 10574 10585 10596 10610 10628 10644 10657 10666 10677 10689 10699 10707 10712 10715 10720 10727 10735 10746 10759 10767 10772 10780 10789 10795 10800 10806 10814 10823 10830 10834 10839 10845 10850 10854 10858 10862 10866 10870 10874 10876 10878 10881 10883 10886 10891 10897 10900 10901 10903 10906 10908 10909 10911 10913 10915 10917 10919 10921 10923 10924 10925 10926 10927 10928 10929 10929 10929 10930 10930 10931 10931
10435 10440 10446 10451 10456 10463 10472 10479 10488 10499 10507 10516 10529 10542 10553 10565 10576 10588 10604 10622 10636 10648 10658 10669 10680 10690 10698 10705 10709 10713 10720 10729 10740 10751 10759 10766 10775 10783 10788 10793 10799 10807 10816 10822 10827 10833 10840 10844 10848 10852 10856 10860 10863 10866 10869 10872 10875 10877 10881 10887 10891 10893 10895 10899 10901 10902 10903 10905 10908 10910 10912 10915 10917 10918 10919 10920 10921 10922 10923 10924 10925 10924 10924 10925 10926 10926
10432 10437 10442 10447 10453 10461 10470 10476 10483 10491 10499 10509 10522 10534 10545 10557 10568 10580 10596 10613 10627 10638 10649 10660 10671 10681 10690 10698 10702 10705 10713 10724 10734 10743 10752 10761 10769 10776 10781 10785 10792 10801 10810 10815 10821 10827 10833 10838 10842 10846 10850 10854 10857 10859 10862 10865 10868 10872 10876 10880 10883 10887 10890 10894 10895 10895 10897 10900 10902 10905 10908 10910 10911 10913 10914 10915 10916 10917 10918 10919 10920 10920 10920 10920 10921 10921
10428 10433 10437 10443 10450 10457 10464 10471 10478 10485 10493 10504 10515 10526 10536 10549 10563 10576 10591 10606 10619 10629 10640 10652 10663 10672 10682 10691 10694 10697 10706 10717 10727 10736 10747 10755 10762 10769 10773 10778 10786 10795 10803 10808 10814 10820 10826 10831 10835 10839 10843 10847 10850 10853 10856 10859 10863 10866 10870 10873 10877 10881 10884 10886 10887 10888 10890 10894 10897 10900 10903 10905 10906 10907 10908 10909 10911 10912 10913 10913 10914 10914 10915 10915 10916 10916
10426 10429 10433 10439 10445 10451 10458 10464 10471 10479 10489 10501 10511 10521 10530 10543 10556 10570 10584 10598 10611 10623 10635 10646 10655 10663 10673 10682 10686 10689 10699 10711 10720 10730 10740 10748 10755 10761 10765 10771 10780 10789 10796 10802 10808 10813 10819 10824 10828 10833 10837 10840 10844 10848 10851 10854 10857 10860 10863 10867 10871 10874 10876 10878 10880 10882 10884 10888 10892 10894 10897 10899 10900 10901 10902 10904 10906 10907 10907 10908 10908 10909 10910 10911 10911 10911
10423 10427 10431 10436 10441 10447 10453 10459 10465 10474 10485 10496 10506 10515 10525 10536 10549 10562 10576 10591 10603 10615 10627 10638 10646 10654 10664 10673 10678 10682 10692 10704 10713 10723 10733 10741 10748 10753 10758 10764 10773 10782 10789 10796 10802 10807 10813 10817 10821 10825 10830 10833 10837 10842 10845 10848 10851 10855 10858 10862 10865 10867 10869 10871 10874 10875 10879 10882 10885 10888 10891 10893 10894 10895 10897 10899 10900 10901 10901 10902 10903 10904 10905 10905 10905 10905
10421 10425 10428 10433 10438 10443 10449 10455 10461 10469 10478 10487 10497 10507 10518 10529 10542 10556 10571 10585 10597 10609 10620 10629 10638 10647 10656 10665 10670 10675 10684 10696 10705 10715 10727 10736 10742 10747 10753 10760 10768 10775 10782 10789 10795 10801 10805 10809 10814 10818 10821 10825 10830 10834 10837 10841 10845 10850 10854 10856 10858 10860 10862 10865 10868 10870 10873 10876 10880 10883 10886 10886 10888 10890 10891 10893 10895 10895 10895 10896 10897 10898 10899 10899 10899 10900